Location: Narrabri
(30.3170°S, 149.7830°E)
Time: 06:14:27
(UTC+10:00)

Envisat - Visible Passes

Search period start: 19 July 2018 00:00
Search period end: 29 July 2018 00:00
Orbit: 764 x 766 km, 98.2° (Epoch: 18 July)

Date Brightness Start Highest point End Pass type
(mag) Time Alt. Az. Time Alt. Az. Time Alt. Az.
20 Jul 6.0 05:57:06 10° E 05:58:27 11° ESE 05:59:48 10° SE visible
22 Jul 5.5 06:19:59 10° ENE 06:23:43 21° ESE 06:27:27 10° SSE visible
25 Jul 5.7 06:09:36 10° ENE 06:12:40 16° ESE 06:15:44 10° SSE visible
28 Jul 5.9 05:59:36 10° E 06:01:38 12° ESE 06:03:40 10° SE visible
